GW4289 Weather Reports


time (UTC)temp
F
wind
direction
speed
knots
gust
knots
rain 1hr
in
rain 24hr
in
rain mn
in
humidity
%
barometer
mb
20260507151536 54 49 0.9 2.6 0.00 0.05 0.03 59 1012.7
20260507151018 54 49 0.9 4.3 0.00 0.05 0.03 59 1012.8
20260507150518 54 49 1.7 4.3 0.00 0.05 0.03 59 1012.7
20260507150032 54 49 0.9 2.6 0.00 0.05 0.03 60 1012.7
20260507145517 54 49 0.9 3.5 0.00 0.10 0.03 60 1012.9
20260507145022 53 49 0.9 3.5 0.00 0.10 0.03 60 1012.9
20260507144537 53 49 1.7 4.3 0.00 0.10 0.03 61 1013.0
20260507144018 53 49 0.9 4.3 0.00 0.10 0.03 60 1013.0
20260507143521 53 49 0.9 4.3 0.00 0.10 0.03 60 1013.1
20260507143039 53 49 0.9 4.3 0.00 0.10 0.03 60 1013.2
20260507142519 53 0 1.7 3.5 0.00 0.10 0.03 61 1013.0
20260507142018 53 49 1.7 5.2 0.00 0.10 0.03 61 1013.1
20260507141541 53 49 0.9 5.2 0.00 0.10 0.03 62 1013.2
20260507141018 53 49 1.7 5.2 0.00 0.10 0.03 61 1013.2
20260507140518 53 49 0.9 5.2 0.00 0.10 0.03 61 1013.3
20260507140039 53 49 0.9 5.2 0.00 0.10 0.03 62 1013.3
20260507135518 53 49 2.6 5.2 0.00 0.29 0.03 60 1013.4
20260507135019 53 49 1.7 4.3 0.00 0.29 0.03 62 1013.4
20260507134536 53 49 1.7 4.3 0.00 0.29 0.03 62 1013.5
20260507134018 53 49 1.7 3.5 0.00 0.29 0.03 63 1013.5
20260507133518 53 49 0.9 3.5 0.00 0.29 0.03 63 1013.4
20260507133033 53 49 0.9 3.5 0.00 0.29 0.03 64 1013.5
20260507132521 53 49 0.9 3.5 0.00 0.29 0.03 65 1013.5
20260507132018 53 49 0.9 3.5 0.00 0.29 0.03 67 1013.5
20260507131538 53 49 0.9 3.5 0.00 0.29 0.03 69 1013.4
20260507131018 53 49 0.9 3.5 0.00 0.29 0.03 69 1013.3
20260507130516 53 49 1.7 2.6 0.00 0.29 0.03 69 1013.4
20260507130039 53 49 1.7 3.5 0.00 0.29 0.03 69 1013.4
20260507125518 53 49 0.9 4.3 0.00 0.34 0.03 70 1013.4
20260507125018 53 49 1.7 4.3 0.00 0.34 0.03 72 1013.2
20260507124537 53 49 1.7 4.3 0.00 0.34 0.03 72 1013.2
20260507124016 53 49 1.7 4.3 0.00 0.34 0.03 71 1013.4
20260507123518 53 49 0.9 3.5 0.00 0.34 0.03 72 1013.3
20260507123040 53 49 1.7 3.5 0.00 0.34 0.03 72 1013.3
20260507122517 53 49 0.9 3.5 0.00 0.34 0.03 72 1013.4
20260507122018 53 49 0.9 2.6 0.00 0.34 0.03 72 1013.4
20260507121541 53 49 0.9 4.3 0.00 0.34 0.03 72 1013.3
20260507121019 53 49 0.9 4.3 0.00 0.34 0.03 72 1013.3
20260507120518 53 49 1.7 4.3 0.00 0.34 0.03 71 1013.3
20260507120043 53 49 1.7 4.3 0.00 0.34 0.03 71 1013.1
20260507115517 54 49 0.9 5.2 0.00 0.35 0.03 72 1013.3
20260507115016 54 49 1.7 5.2 0.00 0.35 0.03 72 1013.3
20260507114532 54 49 1.7 5.2 0.00 0.35 0.03 73 1013.0
20260507114017 54 49 1.7 4.3 0.00 0.35 0.03 73 1013.0
20260507113516 54 49 0.9 4.3 0.00 0.35 0.03 74 1012.9
20260507113043 54 49 0.9 4.3 0.00 0.35 0.03 75 1012.8
20260507112517 54 49 0.9 3.5 0.00 0.35 0.03 76 1012.6
20260507112017 53 49 1.7 3.5 0.00 0.35 0.03 76 1012.7
20260507111538 53 49 0.9 3.5 0.00 0.35 0.03 75 1012.7
20260507111016 54 49 0.9 2.6 0.00 0.35 0.03 75 1012.8
20260507110516 54 49 0.9 2.6 0.00 0.35 0.03 75 1012.6
20260507110038 54 49 0.9 2.6 0.00 0.35 0.03 75 1012.4
20260507105518 53 49 0.0 2.6 0.00 0.35 0.03 75 1012.5
20260507105015 53 49 0.9 3.5 0.00 0.35 0.03 74 1012.7
20260507104536 54 49 0.9 3.5 0.00 0.35 0.03 74 1012.6
20260507104017 54 49 0.9 2.6 0.00 0.35 0.03 74 1012.4
20260507103518 54 49 0.9 2.6 0.00 0.35 0.03 74 1012.4
20260507103033 54 49 1.7 3.5 0.00 0.35 0.03 74 1012.4
20260507102516 54 49 0.9 4.3 0.00 0.35 0.03 74 1012.3
20260507102017 54 49 1.7 4.3 0.00 0.35 0.03 75 1012.3
20260507101532 54 49 1.7 4.3 0.00 0.35 0.03 74 1012.3
20260507101016 54 49 1.7 5.2 0.00 0.35 0.03 75 1012.2
20260507100516 54 49 1.7 5.2 0.00 0.35 0.03 75 1012.1
20260507100040 54 49 1.7 4.3 0.00 0.35 0.03 75 1012.3
20260507095517 54 49 1.7 4.3 0.00 0.35 0.03 75 1012.1
20260507095017 54 49 1.7 3.5 0.00 0.35 0.03 76 1012.1
20260507094537 54 49 0.9 3.5 0.00 0.35 0.03 77 1012.1
20260507094019 54 49 0.9 3.5 0.00 0.35 0.03 77 1012.2
20260507093518 54 49 0.9 3.5 0.00 0.35 0.03 78 1012.1
20260507093037 54 49 0.9 3.5 0.00 0.35 0.03 78 1012.2
20260507092517 54 49 1.7 3.5 0.00 0.35 0.03 79 1012.1
20260507092021 54 49 1.7 4.3 0.00 0.35 0.03 79 1012.0
20260507091536 54 49 0.9 4.3 0.00 0.35 0.03 80 1011.6
20260507091018 54 49 0.9 4.3 0.00 0.35 0.03 81 1011.7
20260507090518 54 49 0.9 3.5 0.00 0.35 0.03 81 1011.7
20260507090032 54 49 0.9 4.3 0.00 0.35 0.03 82 1011.8
20260507085518 54 49 0.9 4.3 0.00 0.35 0.03 81 1012.0
20260507085018 54 49 1.7 4.3 0.00 0.35 0.03 81 1011.8
20260507084534 54 49 0.9 3.5 0.00 0.35 0.03 83 1011.9
20260507084016 54 49 1.7 3.5 0.00 0.35 0.03 83 1011.7
20260507083518 54 49 0.9 3.5 0.00 0.35 0.03 84 1011.6
20260507083037 54 49 0.0 1.7 0.00 0.35 0.03 84 1011.7
20260507082518 54 49 0.0 1.7 0.00 0.35 0.03 84 1011.9
20260507082016 54 49 0.9 2.6 0.00 0.35 0.03 84 1011.8
20260507081544 54 49 0.9 3.5 0.00 0.35 0.03 84 1011.7
20260507081021 54 49 0.9 3.5 0.00 0.35 0.03 84 1011.5
20260507080520 54 49 0.9 3.5 0.00 0.35 0.03 84 1011.3
20260507080038 54 49 0.0 3.5 0.00 0.35 0.03 84 1011.2
20260507075518 54 49 0.9 3.5 0.00 0.35 0.03 84 1011.2
20260507075020 54 49 0.9 3.5 0.00 0.35 0.03 84 1011.1
20260507074535 54 49 1.7 3.5 0.00 0.35 0.03 84 1011.1
20260507074018 54 49 1.7 7.0 0.00 0.35 0.03 84 1011.3
20260507073518 54 49 1.7 7.0 0.00 0.35 0.03 84 1011.3
20260507073035 54 49 1.7 5.2 0.00 0.35 0.03 84 1011.1
20260507072518 54 49 2.6 6.1 0.00 0.35 0.03 84 1011.0
20260507072017 54 49 2.6 6.1 0.00 0.35 0.03 84 1010.9
20260507071535 54 49 0.9 6.1 0.00 0.35 0.03 84 1011.1
20260507071018 54 49 0.9 5.2 0.00 0.35 0.03 84 1011.1
20260507070518 54 49 1.7 5.2 0.00 0.35 0.03 84 1011.0
20260507070040 54 49 2.6 5.2 0.00 0.35 0.03 84 1011.1
20260507065517 54 49 1.7 4.3 0.00 0.35 0.03 85 1011.1
20260507065017 55 49 0.9 6.1 0.00 0.35 0.03 86 1011.1
20260507064545 55 49 1.7 6.1 0.00 0.35 0.03 86 1011.1
20260507064018 55 49 1.7 4.3 0.00 0.35 0.03 86 1011.1
20260507063518 55 49 1.7 5.2 0.01 0.35 0.03 87 1011.2
20260507063046 55 49 1.7 5.2 0.01 0.35 0.03 87 1011.1
20260507062522 55 49 1.7 7.0 0.01 0.35 0.03 88 1011.2
20260507062016 55 49 2.6 7.0 0.01 0.35 0.03 88 1011.3
20260507061540 55 49 0.9 4.3 0.01 0.35 0.03 88 1011.4
20260507061018 55 49 1.7 6.1 0.01 0.35 0.03 88 1010.9
20260507060518 55 49 1.7 6.1 0.01 0.35 0.03 88 1010.9
20260507060037 55 49 3.5 6.1 0.01 0.35 0.03 88 1011.0
20260507055518 55 49 2.6 6.1 0.01 0.35 0.03 88 1011.0
20260507055016 55 49 2.6 6.1 0.01 0.35 0.03 88 1011.1
20260507054537 55 49 2.6 8.7 0.01 0.35 0.03 88 1011.1
20260507054018 56 49 2.6 8.7 0.01 0.35 0.03 87 1011.0
20260507053518 56 49 1.7 5.2 0.00 0.34 0.02 87 1011.3
20260507053041 56 49 2.6 5.2 0.00 0.34 0.02 87 1011.3
20260507052518 56 49 1.7 7.0 0.01 0.34 0.02 87 1011.2
20260507052022 56 49 2.6 7.0 0.01 0.34 0.02 86 1011.2
20260507051539 56 49 1.7 5.2 0.02 0.34 0.02 86 1011.1
20260507051019 57 49 1.7 5.2 0.02 0.34 0.02 87 1010.9
20260507050517 57 49 1.7 5.2 0.02 0.34 0.02 87 1010.4
20260507050035 57 49 0.9 4.3 0.02 0.34 0.02 87 1010.9
20260507045518 57 49 0.9 4.3 0.02 0.34 0.02 86 1011.4
20260507045018 57 49 2.6 4.3 0.02 0.34 0.02 86 1011.4
20260507044537 57 49 0.9 5.2 0.02 0.34 0.02 85 1010.9
20260507044020 58 49 1.7 5.2 0.02 0.34 0.02 84 1011.2
20260507043518 58 49 2.6 5.2 0.02 0.34 0.02 83 1011.3
20260507043038 59 49 2.6 5.2 0.02 0.34 0.02 83 1011.4
20260507042517 59 49 1.7 3.5 0.01 0.33 0.01 82 1011.2
20260507042019 59 49 1.7 3.5 0.01 0.33 0.01 81 1011.3
20260507041544 60 49 1.7 4.3 0.00 0.32 0.00 80 1011.4
20260507041019 60 49 1.7 4.3 0.00 0.32 0.00 79 1011.1
20260507040518 60 49 1.7 3.5 0.00 0.32 0.00 79 1011.0
20260507040037 60 49 0.9 5.2 0.00 0.32 0.00 79 1010.9
20260507035518 60 49 0.9 5.2 0.00 0.32 0.32 79 1010.9
20260507035019 60 49 2.6 9.6 0.00 0.32 0.32 78 1010.7
20260507034544 60 49 3.5 9.6 0.00 0.32 0.32 78 1010.8
20260507034018 60 49 3.5 7.8 0.00 0.32 0.32 78 1010.9
20260507033521 61 49 2.6 10.4 0.00 0.32 0.32 78 1010.9
20260507033053 61 49 4.3 10.4 0.00 0.32 0.32 76 1010.8
20260507032520 61 49 3.5 10.4 0.00 0.32 0.32 75 1010.8
20260507032018 62 49 2.6 10.4 0.00 0.32 0.32 75 1011.0
20260507031534 62 49 3.5 10.4 0.00 0.32 0.32 75 1011.0
20260507031018 62 49 4.3 7.8 0.00 0.32 0.32 76 1010.8
20260507030518 62 49 2.6 7.8 0.00 0.32 0.32 77 1010.8
20260507030034 62 49 1.7 7.8 0.00 0.32 0.32 77 1010.6
20260507025517 62 49 1.7 9.6 0.00 0.32 0.32 77 1010.2
20260507025015 62 49 3.5 9.6 0.00 0.32 0.32 77 1009.9
20260507024545 63 49 2.6 6.1 0.00 0.32 0.32 78 1010.1
20260507024018 63 49 3.5 6.1 0.00 0.32 0.32 79 1010.4
20260507023517 63 49 3.5 7.8 0.00 0.32 0.32 79 1010.5
20260507023037 64 49 1.7 7.8 0.00 0.32 0.32 81 1010.2
20260507022519 64 49 3.5 7.8 0.00 0.32 0.32 81 1010.1
20260507022016 64 49 2.6 6.1 0.00 0.32 0.32 83 1010.1
20260507021538 65 49 1.7 6.1 0.00 0.32 0.32 83 1009.9
20260507021019 65 49 1.7 5.2 0.00 0.32 0.32 83 1009.8
20260507020518 65 49 1.7 5.2 0.00 0.32 0.32 83 1009.9
20260507020034 65 49 1.7 5.2 0.00 0.32 0.32 83 1009.8
20260507015519 65 49 1.7 4.3 0.00 0.32 0.32 83 1009.8
20260507015018 65 49 1.7 4.3 0.00 0.32 0.32 84 1009.8
20260507014532 66 49 0.9 4.3 0.00 0.32 0.32 84 1009.8
20260507014018 66 49 1.7 7.0 0.00 0.32 0.32 84 1009.7
20260507013518 66 49 2.6 7.0 0.00 0.32 0.32 84 1009.6
20260507013039 66 49 1.7 5.2 0.00 0.32 0.32 84 1009.7
20260507012518 66 49 1.7 3.5 0.00 0.32 0.32 85 1009.9
20260507012019 66 49 0.9 3.5 0.00 0.32 0.32 85 1010.0
20260507011539 67 49 0.9 2.6 0.00 0.32 0.32 85 1010.2
20260507011018 66 49 0.0 1.7 0.00 0.32 0.32 86 1010.0
20260507010519 66 0 0.0 1.7 0.00 0.32 0.32 85 1010.0
20260507010040 67 49 0.9 1.7 0.00 0.32 0.32 85 1009.8
20260507005521 67 49 0.9 1.7 0.00 0.32 0.32 85 1010.0
20260507005018 67 49 0.0 1.7 0.00 0.32 0.32 84 1009.7
20260507004535 67 49 0.0 1.7 0.00 0.32 0.32 84 1009.6
20260507004018 67 49 0.9 1.7 0.00 0.32 0.32 84 1009.7
20260507003518 67 49 0.0 1.7 0.00 0.32 0.32 84 1009.6
20260507003034 67 0 0.0 0.9 0.00 0.32 0.32 84 1009.8
20260507002518 67 0 0.0 0.9 0.00 0.32 0.32 83 1009.5
20260507002019 67 0 0.0 1.7 0.00 0.32 0.32 83 1009.5
20260507001551 68 49 0.0 1.7 0.00 0.32 0.32 82 1009.4
20260507001017 68 49 0.9 1.7 0.00 0.32 0.32 81 1009.4
20260507000518 68 49 0.0 1.7 0.00 0.32 0.32 80 1009.3
20260507000037 68 0 0.0 1.7 0.00 0.32 0.32 80 1009.2
20260506235519 68 49 0.9 1.7 0.00 0.32 0.32 80 1009.3
20260506235021 68 49 0.0 1.7 0.00 0.32 0.32 79 1009.3
20260506234547 68 49 0.9 2.6 0.00 0.32 0.32 79 1009.2
20260506234021 68 49 0.9 2.6 0.00 0.32 0.32 79 1009.2
20260506233519 68 49 0.9 3.5 0.00 0.32 0.32 79 1009.0
20260506233037 68 49 0.9 3.5 0.00 0.32 0.32 79 1008.9
20260506232518 68 49 0.0 1.7 0.00 0.32 0.32 79 1008.8
20260506232016 68 49 0.9 4.3 0.00 0.32 0.32 79 1008.8
20260506231537 68 49 0.9 4.3 0.00 0.32 0.32 79 1008.9
20260506231019 68 49 0.9 4.3 0.00 0.32 0.32 79 1008.7
20260506230519 68 49 1.7 6.1 0.00 0.32 0.32 79 1008.6
20260506230035 68 49 2.6 7.0 0.00 0.32 0.32 79 1008.7
20260506225519 68 49 1.7 7.0 0.00 0.32 0.32 79 1008.6
20260506225019 68 49 2.6 7.0 0.00 0.32 0.32 79 1008.6
20260506224547 68 49 2.6 5.2 0.00 0.32 0.32 79 1008.6
20260506224019 68 49 2.6 7.0 0.00 0.32 0.32 78 1008.6
20260506223518 68 49 3.5 7.0 0.00 0.32 0.32 78 1008.4
20260506223037 68 49 3.5 7.8 0.00 0.32 0.32 78 1008.4
20260506222519 68 49 2.6 8.7 0.00 0.32 0.32 78 1008.6
20260506222018 68 49 3.5 8.7 0.00 0.32 0.32 78 1008.7
20260506221536 69 49 4.3 8.7 0.00 0.32 0.32 77 1008.6
20260506221018 69 49 2.6 7.8 0.00 0.32 0.32 78 1008.5
20260506220518 69 49 3.5 9.6 0.00 0.32 0.32 78 1008.5
20260506220044 69 49 4.3 9.6 0.00 0.32 0.32 77 1008.5
20260506215516 69 49 3.5 9.6 0.00 0.32 0.32 77 1008.5
20260506215015 69 49 4.3 10.4 0.00 0.32 0.32 77 1008.6
20260506214537 69 49 3.5 10.4 0.00 0.32 0.32 77 1008.5
20260506214019 69 49 5.2 11.3 0.00 0.32 0.32 77 1008.4
20260506213518 69 49 4.3 11.3 0.00 0.32 0.32 77 1008.5
20260506213034 69 49 6.1 11.3 0.00 0.32 0.32 77 1008.5
20260506212523 69 49 5.2 10.4 0.00 0.32 0.32 77 1008.4
20260506212016 69 50 5.2 9.6 0.00 0.32 0.32 76 1008.4
20260506211534 69 50 3.5 8.7 0.00 0.32 0.32 76 1008.5
20260506211055 69 50 2.6 10.4 0.00 0.32 0.32 77 1008.5
20260506210516 69 50 4.3 10.4 0.00 0.32 0.32 77 1008.3
20260506210038 69 50 5.2 9.6 0.00 0.32 0.32 77 1008.3
20260506205520 69 50 5.2 10.4 0.00 0.32 0.32 76 1008.2
20260506205018 69 50 3.5 10.4 0.00 0.32 0.32 77 1008.1
20260506204539 69 50 5.2 10.4 0.00 0.32 0.32 77 1008.1
20260506204019 69 50 4.3 9.6 0.00 0.32 0.32 77 1008.0
20260506203519 68 50 4.3 9.6 0.00 0.32 0.32 78 1008.1
20260506203037 68 50 3.5 11.3 0.00 0.32 0.32 77 1008.2
20260506202518 68 50 3.5 11.3 0.00 0.32 0.32 78 1008.1
20260506202018 68 50 3.5 10.4 0.00 0.32 0.32 78 1008.1
20260506201537 68 50 3.5 11.3 0.00 0.32 0.32 79 1008.2
20260506201018 67 50 4.3 11.3 0.00 0.32 0.32 79 1008.3
20260506200518 67 50 5.2 11.3 0.00 0.32 0.32 78 1008.2
20260506200041 67 50 5.2 11.3 0.00 0.32 0.32 79 1008.4
20260506195519 67 50 4.3 10.4 0.00 0.32 0.32 79 1008.4
20260506195018 67 50 5.2 11.3 0.00 0.32 0.32 79 1008.4
20260506194544 67 50 4.3 11.3 0.00 0.32 0.32 79 1008.3
20260506194023 67 50 6.1 11.3 0.00 0.32 0.32 78 1008.3
20260506193518 67 50 5.2 9.6 0.00 0.32 0.32 78 1008.4
20260506193043 67 50 3.5 10.4 0.00 0.32 0.32 80 1008.5
20260506192515 67 50 5.2 10.4 0.00 0.32 0.32 79 1008.4
20260506192019 67 50 4.3 12.2 0.00 0.32 0.32 79 1008.3
20260506191537 67 50 5.2 12.2 0.00 0.32 0.32 80 1008.4
20260506191016 66 51 6.1 11.3 0.00 0.32 0.32 79 1008.5
20260506190519 67 50 5.2 11.3 0.00 0.32 0.32 79 1008.6
20260506190038 66 50 5.2 9.6 0.00 0.32 0.32 80 1008.6
20260506185518 66 50 5.2 11.3 0.00 0.32 0.32 81 1008.5
20260506185019 66 50 5.2 11.3 0.00 0.32 0.32 81 1008.7
20260506184538 66 50 4.3 10.4 0.00 0.32 0.32 81 1008.9
20260506184019 66 50 4.3 10.4 0.00 0.32 0.32 81 1008.9
20260506183519 66 50 3.5 9.6 0.00 0.32 0.32 81 1008.9
20260506183041 65 50 4.3 9.6 0.00 0.32 0.32 81 1008.9
20260506182519 65 50 4.3 9.6 0.00 0.32 0.32 81 1008.9
20260506182024 65 50 3.5 9.6 0.00 0.32 0.32 81 1009.0
20260506181552 65 49 3.5 9.6 0.00 0.32 0.32 82 1009.2
20260506181019 65 50 4.3 12.2 0.00 0.32 0.32 81 1009.0
20260506180519 65 50 6.1 12.2 0.00 0.32 0.32 81 1009.0
20260506180037 65 50 4.3 10.4 0.00 0.32 0.32 81 1009.2
20260506175516 65 50 5.2 12.2 0.00 0.32 0.32 81 1009.2
20260506175019 65 50 5.2 12.2 0.00 0.32 0.32 82 1009.2
20260506174538 64 49 4.3 12.2 0.00 0.32 0.32 81 1009.3
20260506174017 64 50 3.5 10.4 0.00 0.32 0.32 83 1009.3
20260506173521 64 50 5.2 10.4 0.00 0.32 0.32 82 1009.3
20260506173047 64 50 4.3 11.3 0.00 0.32 0.32 83 1009.4
20260506172519 64 50 5.2 11.3 0.00 0.32 0.32 83 1009.5
20260506172016 64 49 4.3 10.4 0.00 0.32 0.32 83 1009.4
20260506171535 64 49 4.3 10.4 0.00 0.32 0.32 84 1009.5
20260506171018 64 49 3.5 13.0 0.00 0.32 0.32 84 1009.4
20260506170516 63 49 5.2 13.9 0.00 0.32 0.32 84 1009.5
20260506170045 63 50 4.3 13.9 0.00 0.32 0.32 84 1009.5
20260506165519 63 50 3.5 13.0 0.00 0.32 0.32 85 1009.5
20260506165019 63 50 5.2 13.9 0.00 0.32 0.32 85 1009.3
20260506164538 63 50 7.8 13.9 0.00 0.32 0.32 85 1009.4
20260506164018 63 49 6.1 12.2 0.00 0.32 0.32 86 1009.4
20260506163518 63 50 6.1 13.9 0.00 0.32 0.32 86 1009.4
20260506163037 63 49 6.1 15.6 0.00 0.32 0.32 87 1009.7
20260506162516 62 49 7.0 15.6 0.00 0.32 0.32 87 1009.6
20260506162017 62 51 5.2 10.4 0.00 0.32 0.32 88 1009.6
20260506161537 62 51 4.3 11.3 0.00 0.32 0.32 89 1009.8
20260506161016 62 51 4.3 11.3 0.00 0.32 0.32 89 1009.8
20260506160516 62 51 5.2 10.4 0.01 0.32 0.32 89 1009.7
20260506160041 62 51 4.3 10.4 0.01 0.32 0.32 89 1009.7
20260506155518 61 51 6.1 11.3 0.02 0.32 0.32 90 1009.7
20260506155019 61 51 5.2 11.3 0.03 0.32 0.32 90 1009.6
20260506154539 61 51 5.2 10.4 0.04 0.32 0.32 90 1009.8
20260506154018 61 51 3.5 9.6 0.04 0.32 0.32 91 1009.8
20260506153519 61 51 5.2 13.0 0.05 0.32 0.32 91 1009.7
20260506153038 61 51 5.2 13.0 0.05 0.32 0.32 91 1009.9
20260506152518 60 51 5.2 12.2 0.06 0.32 0.32 92 1009.9
20260506152019 60 50 5.2 12.2 0.06 0.32 0.32 91 1009.9